GORIZONT 20 [-]

Last updated on Nov. 19, 2019, 4:25 a.m. UTC

1 20659U 90054A   19321.65629618 -.00000063  00000-0  00000-0 0  9999
2 20659  14.8194 355.4866 0002318 166.6832 199.9231  1.00320780107591
UTC
Height (km)
Latitude
Longitude
Inclination
Orbital Period
UTC large
Height (km)
Speed (km/s)
/
Latitude / Longitude
Inclination (degrees)
Orbital Period (minutes)
Azimuth
Elevation
Range (km)
Doppler Factor
iOS Compass Heading
iOS Angle

Next 30 passes for location: Hong Kong

Rise time Rise Azimuth (degrees) Set time Set Azimuth (degrees) Duration Max altitude (degrees)

No matching passes for this satellites